DW0866 Weather Reports


Display with metric or nautical units.
time (UTC)temp
F
wind
direction
speed
MPH
gust
MPH
rain 1hr
in
rain 24hr
in
rain mn
in
humidity
%
barometer
mb
20190720004345 66 26 2.0 7.0 0.00 0.00 0.00 69 1014.8
20190720003833 66 334 1.0 5.0 0.00 0.00 0.00 70 1014.9
20190720003344 66 25 3.0 6.0 0.00 0.00 0.00 70 1014.9
20190720002831 65 346 1.0 7.0 0.00 0.00 0.00 69 1014.8
20190720002340 66 5 3.0 10.0 0.00 0.00 0.00 69 1014.9
20190720001845 66 26 2.0 10.0 0.00 0.00 0.00 69 1014.8
20190720001335 66 11 4.0 10.0 0.00 0.00 0.00 68 1014.9
20190720000833 66 13 3.0 10.0 0.00 0.00 0.00 68 1014.9
20190720000344 66 23 2.0 7.0 0.00 0.00 0.00 69 1014.9
20190719235830 66 350 3.0 7.0 0.00 0.00 0.00 69 1014.9
20190719235343 66 22 1.0 8.0 0.00 0.00 0.00 69 1014.8
20190719234829 66 10 4.0 9.0 0.00 0.00 0.00 69 1014.7
20190719234341 66 355 2.0 9.0 0.00 0.00 0.00 68 1014.6
20190719233825 66 355 1.0 9.0 0.00 0.00 0.00 69 1014.8
20190719233338 66 5 3.0 10.0 0.00 0.00 0.00 69 1014.7
20190719232829 66 360 5.0 10.0 0.00 0.00 0.00 69 1014.8
20190719232342 66 360 4.0 9.0 0.00 0.00 0.00 69 1014.8
20190719231829 67 30 3.0 8.0 0.00 0.00 0.00 68 1014.7
20190719231339 67 350 3.0 7.0 0.00 0.00 0.00 68 1014.7
20190719230838 66 349 3.0 7.0 0.00 0.00 0.00 69 1014.7
20190719230331 66 350 1.0 7.0 0.00 0.00 0.00 69 1014.8
20190719225838 66 9 4.0 10.0 0.00 0.00 0.00 69 1014.7
20190719225328 66 29 4.0 10.0 0.00 0.00 0.00 69 1014.6
20190719224835 66 360 3.0 10.0 0.00 0.00 0.00 69 1014.7
20190719224344 66 10 3.0 7.0 0.00 0.00 0.00 70 1014.6
20190719223831 66 30 4.0 10.0 0.00 0.00 0.00 69 1014.6
20190719223343 67 20 5.0 11.0 0.00 0.00 0.00 69 1014.6
20190719222828 67 10 4.0 10.0 0.00 0.00 0.00 69 1014.7
20190719222342 67 360 2.0 11.0 0.00 0.00 0.00 70 1014.7
20190719221828 67 360 4.0 11.0 0.00 0.00 0.00 69 1014.7
20190719221340 67 11 4.0 10.0 0.00 0.00 0.00 69 1014.7
20190719220840 67 351 3.0 10.0 0.00 0.00 0.00 69 1014.6
20190719220330 67 13 4.0 9.0 0.00 0.00 0.00 68 1014.6
20190719215836 67 360 3.0 11.0 0.00 0.00 0.00 70 1014.5
20190719215327 67 343 4.0 11.0 0.00 0.00 0.00 69 1014.5
20190719214835 67 327 2.0 9.0 0.00 0.00 0.00 70 1014.5
20190719214345 67 338 3.0 10.0 0.00 0.00 0.00 70 1014.5
20190719213833 67 360 1.0 10.0 0.00 0.00 0.00 69 1014.5
20190719213344 67 355 2.0 11.0 0.00 0.00 0.00 70 1014.4
20190719212833 67 5 4.0 11.0 0.00 0.00 0.00 70 1014.4
20190719212345 66 360 1.0 10.0 0.00 0.00 0.00 71 1014.4
20190719211834 66 348 3.0 10.0 0.00 0.00 0.00 71 1014.4
20190719211344 66 360 3.0 10.0 0.00 0.00 0.00 70 1014.3
20190719210844 66 360 4.0 12.0 0.00 0.00 0.00 70 1014.3
20190719210336 66 5 4.0 12.0 0.00 0.00 0.00 70 1014.1
20190719205826 67 34 1.0 10.0 0.00 0.00 0.00 71 1014.2
20190719205335 67 360 3.0 9.0 0.00 0.00 0.00 70 1014.1
20190719204843 67 325 1.0 9.0 0.00 0.00 0.00 72 1014.1
20190719204333 67 343 3.0 10.0 0.00 0.00 0.00 71 1014.1
20190719203841 67 360 2.0 10.0 0.00 0.00 0.00 72 1014.0
20190719203330 66 347 0.0 9.0 0.00 0.00 0.00 71 1014.0
20190719202837 66 9 1.0 13.0 0.00 0.00 0.00 72 1014.1
20190719202328 66 9 4.0 13.0 0.00 0.00 0.00 72 1014.1
20190719201836 66 24 4.0 10.0 0.00 0.00 0.00 71 1014.1
20190719201327 66 14 2.0 7.0 0.00 0.00 0.00 73 1014.2
20190719200826 66 346 0.0 9.0 0.00 0.00 0.00 73 1014.2
20190719200340 65 355 1.0 11.0 0.00 0.00 0.00 74 1014.2
20190719195826 65 355 5.0 11.0 0.00 0.00 0.00 72 1014.1
20190719195339 66 360 4.0 11.0 0.00 0.00 0.00 72 1014.1
20190719194826 66 360 3.0 12.0 0.00 0.00 0.00 72 1014.2
20190719194340 66 360 3.0 12.0 0.00 0.00 0.00 73 1014.2
20190719193826 66 350 1.0 6.0 0.00 0.00 0.00 73 1014.2
20190719193340 66 326 0.0 4.0 0.00 0.00 0.00 73 1014.2
20190719192826 66 319 0.0 7.0 0.00 0.00 0.00 75 1014.3
20190719192336 66 325 1.0 7.0 0.00 0.00 0.00 75 1014.2
20190719191844 65 258 0.0 10.0 0.00 0.00 0.00 77 1014.2
20190719191333 65 268 0.0 10.0 0.00 0.00 0.00 75 1014.1
20190719190832 66 9 1.0 7.0 0.00 0.00 0.00 74 1014.2
20190719190344 66 286 1.0 9.0 0.00 0.00 0.00 74 1014.1
20190719185829 66 348 0.0 9.0 0.00 0.00 0.00 76 1014.0
20190719185343 66 360 0.0 5.0 0.00 0.00 0.00 76 1013.9
20190719184829 66 267 0.0 4.0 0.00 0.00 0.00 77 1013.8
20190719184342 65 275 0.0 6.0 0.00 0.00 0.00 77 1013.8
20190719183827 65 304 0.0 6.0 0.00 0.00 0.00 77 1013.8
20190719183340 65 346 1.0 3.0 0.00 0.00 0.00 77 1013.7
20190719182835 65 351 0.0 5.0 0.00 0.00 0.00 78 1013.7
20190719182327 65 323 0.0 5.0 0.00 0.00 0.00 78 1013.7
20190719181832 66 360 0.0 1.0 0.00 0.00 0.00 78 1013.7
20190719181342 66 355 0.0 4.0 0.00 0.00 0.00 77 1013.7
20190719180841 66 346 0.0 4.0 0.00 0.00 0.00 77 1013.5
20190719180332 67 308 0.0 3.0 0.00 0.00 0.00 76 1013.6
20190719175842 67 318 0.0 1.0 0.00 0.00 0.00 77 1013.5
20190719175333 67 360 0.0 0.0 0.00 0.00 0.00 76 1013.5
20190719174842 67 304 0.0 1.0 0.00 0.00 0.00 77 1013.5
20190719174334 66 309 0.0 2.0 0.00 0.00 0.00 77 1013.5
20190719173841 66 311 0.0 4.0 0.00 0.00 0.00 77 1013.4
20190719173334 66 348 0.0 4.0 0.00 0.00 0.00 78 1013.3
20190719172843 66 329 0.0 0.0 0.00 0.00 0.00 80 1013.4
20190719172336 65 338 0.0 5.0 0.00 0.00 0.00 80 1013.4
20190719171845 65 355 0.0 5.0 0.00 0.00 0.00 79 1013.3
20190719171338 65 329 0.0 1.0 0.00 0.00 0.00 80 1013.4
20190719170838 65 318 0.0 1.0 0.00 0.00 0.00 79 1013.3
20190719170328 64 335 0.0 1.0 0.00 0.00 0.00 81 1013.4
20190719165836 64 336 0.0 1.0 0.00 0.00 0.00 79 1013.4
20190719165327 64 315 0.0 0.0 0.00 0.00 0.00 79 1013.5
20190719164837 64 347 0.0 1.0 0.00 0.00 0.00 81 1013.5
20190719164328 64 351 0.0 1.0 0.00 0.00 0.00 82 1013.5
20190719163835 63 360 0.0 5.0 0.00 0.00 0.00 81 1013.5
20190719163326 63 360 0.0 0.0 0.00 0.00 0.00 80 1013.5
20190719162834 64 360 0.0 1.0 0.00 0.00 0.00 80 1013.5
20190719162343 64 323 0.0 1.0 0.00 0.00 0.00 79 1013.4
20190719161833 64 360 0.0 1.0 0.00 0.00 0.00 80 1013.4
20190719161328 64 360 0.0 3.0 0.00 0.00 0.00 80 1013.4
20190719160841 64 360 0.0 3.0 0.00 0.00 0.00 79 1013.3
20190719160337 64 344 0.0 0.0 0.00 0.00 0.00 81 1013.4
20190719155843 64 360 0.0 0.0 0.00 0.00 0.00 82 1013.3
20190719155335 63 360 0.0 3.0 0.00 0.00 0.00 81 1013.3
20190719154842 63 360 0.0 3.0 0.00 0.00 0.00 81 1013.2
20190719154333 63 18 0.0 3.0 0.00 0.00 0.00 82 1013.2
20190719153842 63 47 0.0 0.0 0.00 0.00 0.00 82 1013.2
20190719153332 62 47 0.0 0.0 0.00 0.00 0.00 83 1013.2
20190719152839 62 47 0.0 0.0 0.00 0.00 0.00 84 1013.2
20190719152328 62 46 0.0 0.0 0.00 0.00 0.00 85 1013.2
20190719151836 61 57 0.0 0.0 0.00 0.00 0.00 85 1013.1
20190719151345 61 58 0.0 0.0 0.00 0.00 0.00 88 1013.0
20190719150843 60 59 0.0 0.0 0.00 0.00 0.00 88 1013.0
20190719150333 60 61 0.0 0.0 0.00 0.00 0.00 90 1013.1
20190719145842 59 61 0.0 0.0 0.00 0.00 0.00 91 1013.0
20190719145333 59 61 0.0 0.0 0.00 0.00 0.00 92 1012.9
20190719144840 58 61 0.0 0.0 0.00 0.00 0.00 92 1013.1
20190719144330 58 63 0.0 0.0 0.00 0.00 0.00 92 1013.2
20190719143837 57 61 0.0 0.0 0.00 0.00 0.00 93 1013.1
20190719143327 57 63 0.0 0.0 0.00 0.00 0.00 93 1013.0
20190719142834 57 61 0.0 0.0 0.00 0.00 0.00 93 1013.0
20190719142325 56 63 0.0 0.0 0.00 0.00 0.00 93 1013.0
20190719141833 55 62 0.0 0.0 0.00 0.00 0.00 93 1013.0
20190719141343 55 61 0.0 0.0 0.00 0.02 0.00 93 1013.0
20190719140840 54 61 0.0 0.0 0.00 0.02 0.00 93 1013.0
20190719140331 54 62 0.0 0.0 0.00 0.02 0.00 94 1013.0
20190719135839 53 65 0.0 0.0 0.00 0.02 0.00 93 1012.9
20190719135328 52 61 0.0 0.0 0.00 0.02 0.00 93 1013.0
20190719134837 52 65 0.0 0.0 0.00 0.02 0.00 93 1013.0
20190719134327 52 61 0.0 0.0 0.00 0.02 0.00 93 1012.9
20190719133835 52 61 0.0 0.0 0.00 0.02 0.00 93 1012.9
20190719133330 51 59 0.0 0.0 0.00 0.02 0.00 93 1012.8
20190719132837 51 65 0.0 0.0 0.00 0.02 0.00 93 1012.7
20190719132328 51 59 0.0 0.0 0.00 0.02 0.00 93 1012.6
20190719131836 51 57 0.0 0.0 0.00 0.02 0.00 93 1012.7
20190719131326 51 61 0.0 0.0 0.00 0.02 0.00 93 1012.6
20190719130845 51 66 0.0 0.0 0.00 0.02 0.00 93 1012.5
20190719130333 51 59 0.0 0.0 0.00 0.02 0.00 93 1012.3
20190719125842 51 65 0.0 0.0 0.00 0.02 0.00 93 1012.2
20190719125335 51 63 0.0 0.0 0.00 0.02 0.00 93 1012.2
20190719124844 51 63 0.0 0.0 0.00 0.02 0.00 93 1012.3
20190719124335 52 61 0.0 0.0 0.00 0.02 0.00 93 1012.3
20190719123844 52 59 0.0 0.0 0.00 0.02 0.00 93 1012.3
20190719123334 52 65 0.0 0.0 0.00 0.02 0.00 92 1012.2
20190719122843 52 61 0.0 0.0 0.00 0.02 0.00 92 1012.1
20190719122334 52 61 0.0 0.0 0.00 0.02 0.00 93 1012.1
20190719121842 52 64 0.0 0.0 0.00 0.02 0.00 93 1012.2
20190719121332 52 62 0.0 0.0 0.00 0.02 0.00 93 1012.1
20190719120832 52 63 0.0 0.0 0.00 0.02 0.00 92 1012.1
20190719120341 52 63 0.0 0.0 0.00 0.02 0.00 92 1012.1
20190719115825 52 61 0.0 0.0 0.00 0.02 0.00 92 1012.1
20190719115336 52 63 0.0 0.0 0.00 0.02 0.00 92 1012.1
20190719114846 52 65 0.0 0.0 0.00 0.02 0.00 92 1012.1
20190719114337 52 63 0.0 0.0 0.00 0.02 0.00 92 1012.1
20190719113845 52 63 0.0 0.0 0.00 0.02 0.00 92 1012.2
20190719113336 52 64 0.0 0.0 0.00 0.02 0.00 92 1012.2
20190719112846 53 64 0.0 0.0 0.00 0.02 0.00 92 1012.2
20190719112337 53 63 0.0 0.0 0.00 0.02 0.00 92 1012.2
20190719111845 53 61 0.0 0.0 0.00 0.02 0.00 92 1012.2
20190719111338 53 60 0.0 0.0 0.00 0.02 0.00 92 1012.1
20190719110837 53 61 0.0 0.0 0.00 0.02 0.00 92 1012.1
20190719110331 53 63 0.0 0.0 0.00 0.02 0.00 92 1012.0
20190719105840 53 63 0.0 0.0 0.00 0.02 0.00 92 1012.0
20190719105330 54 61 0.0 0.0 0.00 0.02 0.00 92 1012.1
20190719104839 54 61 0.0 0.0 0.00 0.02 0.00 92 1011.9
20190719104329 54 63 0.0 0.0 0.00 0.02 0.00 92 1011.9
20190719103838 54 63 0.0 0.0 0.00 0.02 0.00 92 1011.8
20190719103328 54 63 0.0 0.0 0.00 0.02 0.00 92 1011.8
20190719102836 54 61 0.0 0.0 0.00 0.02 0.00 92 1011.8
20190719102326 55 63 0.0 0.0 0.00 0.02 0.00 92 1011.8
20190719101834 55 63 0.0 0.0 0.00 0.02 0.00 92 1011.8
20190719101345 55 62 0.0 0.0 0.00 0.02 0.00 92 1011.9
20190719100843 55 65 0.0 0.0 0.00 0.02 0.00 92 1011.9
20190719100332 55 64 0.0 0.0 0.00 0.02 0.00 92 1012.0
20190719095838 55 63 0.0 0.0 0.00 0.02 0.00 92 1012.0
20190719095326 55 62 0.0 0.0 0.00 0.02 0.00 92 1012.0
20190719094835 55 61 0.0 0.0 0.00 0.02 0.00 92 1012.0
20190719094344 55 46 0.0 0.0 0.00 0.02 0.00 92 1012.1
20190719093827 55 46 0.0 0.0 0.00 0.02 0.00 92 1012.2
20190719093338 55 38 0.0 0.0 0.00 0.02 0.00 92 1012.2
20190719092845 55 360 0.0 0.0 0.00 0.02 0.00 92 1012.3
20190719092335 55 360 0.0 0.0 0.00 0.02 0.00 92 1012.3
20190719091843 55 360 0.0 0.0 0.00 0.02 0.00 92 1012.3
20190719091333 55 360 0.0 0.0 0.00 0.02 0.00 92 1012.5
20190719090829 55 360 0.0 0.0 0.00 0.02 0.00 92 1012.5
20190719090343 55 351 0.0 0.0 0.00 0.02 0.00 92 1012.5
20190719085829 55 355 0.0 0.0 0.00 0.02 0.00 92 1012.6
20190719085343 55 360 0.0 0.0 0.00 0.02 0.00 92 1012.7
20190719084828 55 350 0.0 0.0 0.00 0.02 0.00 92 1012.8
20190719084343 55 360 0.0 0.0 0.00 0.02 0.00 92 1012.8
20190719083828 55 348 0.0 0.0 0.00 0.02 0.00 92 1012.9
20190719083341 55 350 0.0 0.0 0.00 0.02 0.00 92 1012.9
20190719082834 55 351 0.0 0.0 0.00 0.02 0.00 92 1013.1
20190719082344 55 360 0.0 0.0 0.00 0.02 0.00 92 1013.1
20190719081832 55 350 0.0 0.0 0.00 0.02 0.00 92 1013.0
20190719081341 55 350 0.0 0.0 0.00 0.02 0.00 92 1013.1
20190719080840 55 351 0.0 0.0 0.00 0.02 0.00 92 1013.1
20190719080331 55 351 0.0 0.0 0.00 0.02 0.00 92 1013.1
20190719075839 55 360 0.0 0.0 0.00 0.02 0.00 91 1013.1
20190719075330 55 355 0.0 0.0 0.00 0.02 0.00 91 1013.1
20190719074840 55 350 0.0 0.0 0.00 0.02 0.00 91 1013.1
20190719074331 55 360 0.0 0.0 0.00 0.02 0.00 91 1013.1
20190719073840 55 350 0.0 0.0 0.00 0.02 0.00 91 1013.3
20190719073331 55 350 0.0 0.0 0.00 0.02 0.00 91 1013.2
20190719072839 55 360 0.0 0.0 0.00 0.02 0.00 91 1013.3
20190719072327 55 351 0.0 0.0 0.00 0.02 0.00 91 1013.3
20190719071832 55 360 0.0 0.0 0.00 0.02 0.00 91 1013.3
20190719071341 55 350 0.0 0.0 0.00 0.02 0.00 91 1013.4
20190719070841 55 351 0.0 0.0 0.00 0.02 0.00 91 1013.4
20190719070332 55 360 0.0 0.0 0.00 0.02 0.00 91 1013.4
20190719065841 55 350 0.0 0.0 0.00 0.02 0.00 91 1013.5
20190719065331 55 360 0.0 0.0 0.00 0.02 0.02 91 1013.6
20190719064838 55 360 0.0 0.0 0.00 0.02 0.02 91 1013.6
20190719064330 55 351 0.0 0.0 0.00 0.02 0.02 90 1013.6
20190719063839 55 360 0.0 0.0 0.00 0.02 0.02 90 1013.6
20190719063329 56 360 0.0 0.0 0.00 0.02 0.02 90 1013.7
20190719062837 56 355 0.0 0.0 0.00 0.02 0.02 90 1013.8
20190719062328 56 360 0.0 0.0 0.00 0.02 0.02 90 1013.8
20190719061837 56 351 0.0 0.0 0.00 0.02 0.02 90 1013.8
20190719061328 56 355 0.0 0.0 0.00 0.02 0.02 90 1013.8
20190719060826 56 350 0.0 0.0 0.00 0.02 0.02 90 1013.9
20190719060338 56 351 0.0 0.0 0.00 0.02 0.02 89 1013.9
20190719055827 56 350 0.0 0.0 0.00 0.02 0.02 89 1014.0
20190719055340 57 360 0.0 0.0 0.00 0.02 0.02 89 1014.1
20190719054826 57 360 0.0 0.0 0.00 0.02 0.02 88 1014.1
20190719054338 57 360 0.0 0.0 0.00 0.02 0.02 88 1014.0
20190719053844 58 350 0.0 0.0 0.00 0.02 0.02 88 1014.1
20190719053333 57 355 0.0 0.0 0.00 0.02 0.02 89 1014.2
20190719052841 57 360 0.0 0.0 0.00 0.02 0.02 88 1014.3
20190719052331 58 350 0.0 0.0 0.00 0.02 0.02 88 1014.3
20190719051838 57 350 0.0 0.0 0.00 0.02 0.02 88 1014.3
20190719051328 58 360 0.0 0.0 0.00 0.02 0.02 87 1014.3
20190719050846 58 360 0.0 0.0 0.00 0.02 0.02 87 1014.4
20190719050337 58 360 0.0 0.0 0.00 0.02 0.02 87 1014.4
20190719045845 58 350 0.0 0.0 0.00 0.02 0.02 86 1014.4
20190719045335 58 360 0.0 0.0 0.00 0.02 0.02 86 1014.5
20190719044844 58 360 0.0 0.0 0.00 0.02 0.02 86 1014.5
20190719044335 59 348 0.0 0.0 0.00 0.02 0.02 85 1014.4
20190719043842 59 360 0.0 1.0 0.00 0.02 0.02 85 1014.5
20190719043333 59 360 0.0 1.0 0.00 0.02 0.02 84 1014.5
20190719042842 59 360 0.0 1.0 0.00 0.02 0.02 84 1014.4
20190719042334 59 360 0.0 3.0 0.00 0.02 0.02 84 1014.5
20190719041840 59 360 0.0 5.0 0.00 0.02 0.02 83 1014.4
20190719041331 59 11 0.0 6.0 0.00 0.02 0.02 83 1014.4
20190719040828 60 5 1.0 6.0 0.00 0.02 0.02 83 1014.4
20190719040342 60 36 1.0 4.0 0.00 0.02 0.02 83 1014.4
20190719035826 60 15 0.0 1.0 0.00 0.02 0.02 83 1014.4
20190719035337 60 22 0.0 1.0 0.00 0.02 0.02 83 1014.4
20190719034844 60 9 0.0 1.0 0.00 0.02 0.02 82 1014.4
20190719034334 60 10 0.0 3.0 0.00 0.02 0.02 82 1014.5
20190719033843 60 11 0.0 3.0 0.00 0.02 0.02 82 1014.5
20190719033334 60 31 0.0 2.0 0.00 0.02 0.02 81 1014.4
20190719032841 61 30 0.0 2.0 0.00 0.02 0.02 81 1014.4
20190719032335 61 360 0.0 6.0 0.00 0.02 0.02 81 1014.4
20190719031844 61 28 1.0 6.0 0.00 0.02 0.02 80 1014.4
20190719031336 61 9 0.0 3.0 0.00 0.02 0.02 80 1014.4
20190719030835 61 360 0.0 5.0 0.00 0.02 0.02 80 1014.4
20190719030327 62 34 0.0 5.0 0.00 0.02 0.02 80 1014.4
20190719025836 62 26 0.0 7.0 0.00 0.02 0.02 79 1014.4
20190719025326 62 360 2.0 7.0 0.00 0.02 0.02 79 1014.5
20190719024835 62 360 1.0 4.0 0.00 0.02 0.02 79 1014.4
20190719024327 62 9 0.0 5.0 0.00 0.02 0.02 79 1014.4
20190719023834 62 351 0.0 5.0 0.00 0.02 0.02 78 1014.3
20190719023342 63 11 0.0 2.0 0.00 0.02 0.02 79 1014.4
20190719022832 63 360 0.0 5.0 0.00 0.02 0.02 78 1014.3
20190719022344 63 13 0.0 5.0 0.00 0.02 0.02 78 1014.3
20190719021832 63 10 0.0 5.0 0.00 0.02 0.02 77 1014.3
20190719021342 63 360 0.0 4.0 0.00 0.02 0.02 77 1014.3
20190719020841 64 22 0.0 4.0 0.00 0.02 0.02 76 1014.3
20190719020332 64 360 0.0 3.0 0.00 0.02 0.02 76 1014.3
20190719015840 64 360 0.0 5.0 0.00 0.02 0.02 75 1014.3
20190719015331 64 17 1.0 5.0 0.00 0.02 0.02 75 1014.3
20190719014838 64 15 1.0 6.0 0.00 0.02 0.02 74 1014.3
20190719014328 65 19 0.0 6.0 0.00 0.02 0.02 73 1014.2
20190719013837 65 360 1.0 6.0 0.00 0.02 0.02 73 1014.2
20190719013328 65 34 2.0 8.0 0.00 0.02 0.02 72 1014.3
20190719012834 66 11 0.0 8.0 0.00 0.02 0.02 72 1014.3
20190719012345 66 341 3.0 8.0 0.00 0.02 0.02 72 1014.3
20190719011828 66 12 3.0 10.0 0.00 0.02 0.02 71 1014.3
20190719011341 66 11 2.0 10.0 0.00 0.02 0.02 71 1014.3
20190719010841 67 14 3.0 9.0 0.00 0.02 0.02 71 1014.3
20190719010331 67 10 3.0 9.0 0.00 0.02 0.02 71 1014.4
20190719005841 67 33 2.0 7.0 0.00 0.02 0.02 71 1014.4
20190719005336 67 20 3.0 12.0 0.00 0.02 0.02 70 1014.4
20190719004845 67 17 4.0 12.0 0.00 0.02 0.02 70 1014.5